STARLINK-32719 (62448 NORAD) Tracking and Keplerian Element Data

This shows tracking and keplerian element data for the satellite.

Feedback or suggestion? Click here.




ElementValue
Catalog62448
NameSTARLINK-32719
Epoch Orbit669
Epoch Day35.16526289
Epoch Year2025
RAAN31.2106
Inclination53.1583
Eccentricity0.0001831
Argument of Perigee83.4706
Mean Anonmoly276.6522
Mean Motion15.73835673
Decay Rate7.01E-05
L11 62448U 24251S 25035.16526289 .00007010 00000+0 52905-4 0 9994
L22 62448 53.1583 31.2106 0001831 83.4706 276.6522 15.73835673 6694



Live tracking and technical data element details for STARLINK-32719 (NORAD 62448). STARLINK-32719 can be tracked NOW for your location showing map with azimuth and elevation plus other details from your city location.







IsCatalogInMostPopularTable: catalog: 62448, numindb: 11
Update: records affected: 1



GetName: 62448 STARLINK-32719

Hit Count: updated at: Mon, 19 May 2025 01:41:59 GMT